Flag for Kazakhstan

Past Weather in Karaganda, Kazakhstan — Yesterday and Last 2 Weeks

Now
64 °F

Scattered clouds.


Feels Like: 64 °F
Forecast: 80 / 58 °F
Wind: 1 mph from North

Location: Karaganda

Current Time: Jul 12, 2020 at 9:04:29 pm

Latest Report: Jul 12, 2020 at 8:00 pm


Visibility: N/A

Pressure: 29.92 "Hg (28.03 "Hg at 555m altitude)

Humidity: 83%

Dew Point: 59 °F

Location of KaragandaLocation

Past Weather in Karaganda — Graph

°F

Karaganda Temperature Yesterday

Maximum temperature yesterday: 75 °F (at 3:00 pm)
Minimum temperature yesterday: 55 °F (at 4:00 am)
Average temperature yesterday: 66 °F

High & Low Weather Summary for the Past Weeks

 TemperatureHumidityPressure
High86 °F (Jun 30, 3:30 pm)100% (Jun 27, 8:30 pm)30.04 "Hg (Jun 27, 8:30 pm)
Low46 °F (Jun 27, 9:00 pm)25% (Jun 30, 4:00 pm)29.56 "Hg (Jun 27, 8:00 pm)
Average65 °F68%29.80 "Hg
* Reported Jun 27 8:00 pm — Jul 12 8:00 pm, Karaganda. Weather by CustomWeather, © 2020

Note: Actual official high and low records may vary slightly from our data, if they occured in-between our weather recording intervals... More about our weather records

Karaganda Weather History for the Previous 24 Hours

Scroll right to see more
 ConditionsComfort  
Time TempWeatherWind HumidityBarometerVisibility
8:00 pm
Sun, Jul 12
64 °FScattered clouds.1 mph83%29.92 "HgN/A
7:30 pm64 °FPartly sunny.10 mph83%29.89 "HgN/A
7:00 pm64 °FPartly sunny.8 mph83%29.92 "HgN/A
6:30 pm64 °FPartly sunny.15 mph83%29.92 "HgN/A
6:00 pm63 °FThunderstorms. Partly sunny.10 mph88%29.92 "HgN/A
5:30 pm59 °FThunderstorms. Partly sunny.13 mph94%29.98 "HgN/A
5:10 pm57 °FThunderstorms. Partly sunny.17 mph94%29.98 "Hg3 mi
4:44 pm72 °FThunderstorms. Partly sunny.15 mph57%30.04 "HgN/A
4:00 pm70 °FPartly sunny.13 mph69%29.89 "HgN/A
3:30 pm84 °FPartly sunny.10 mph43%29.89 "HgN/A
3:00 pm82 °FScattered clouds.10 mph42%29.89 "HgN/A
2:30 pm82 °FPassing clouds.15 mph42%29.89 "HgN/A
2:00 pm81 °FSunny.13 mph45%29.92 "Hg10 mi
1:30 pm81 °FPassing clouds.15 mph45%29.92 "HgN/A
1:00 pm81 °FSunny.13 mph45%29.92 "Hg10 mi
12:30 pm79 °FPassing clouds.10 mph45%29.95 "HgN/A
12:00 pm77 °FPassing clouds.10 mph47%29.95 "HgN/A
11:30 am77 °FSunny.15 mph47%29.95 "Hg10 mi
11:00 am75 °FPassing clouds.13 mph50%29.95 "HgN/A
10:30 am75 °FPassing clouds.10 mph50%29.95 "HgN/A
10:00 am73 °FSunny.8 mph53%29.95 "Hg10 mi
9:30 am72 °FPassing clouds.6 mph57%29.95 "HgN/A
9:00 am68 °FSunny.8 mph69%29.95 "Hg10 mi
8:30 am66 °FSunny.6 mph73%29.95 "Hg10 mi
8:00 am64 °FSunny.1 mph73%29.95 "Hg10 mi
7:30 am61 °FSunny.No wind83%29.98 "Hg10 mi
6:30 am52 °FSunny.No wind94%29.95 "Hg10 mi
6:00 am46 °FClear.3 mph93%29.95 "Hg10 mi
5:30 am48 °FClear.No wind94%29.95 "Hg10 mi
5:00 am48 °FClear.No wind100%29.95 "Hg10 mi
4:30 am48 °FClear.No wind94%29.95 "Hg10 mi
4:00 am48 °FClear.No wind94%29.95 "Hg10 mi
3:30 am48 °FClear.No wind94%29.95 "Hg10 mi
3:00 am48 °FClear.No wind94%29.95 "Hg10 mi
2:30 am50 °FClear.No wind94%29.95 "Hg10 mi
2:00 am48 °FClear.No wind100%29.95 "Hg10 mi
1:30 am52 °FClear.No wind94%29.95 "Hg10 mi
1:00 am52 °FClear.No wind94%29.98 "Hg10 mi
12:30 am54 °FClear.6 mph94%29.95 "Hg10 mi
12:00 am55 °FClear.No wind94%29.95 "Hg10 mi
11:30 pm
Sat, Jul 11
55 °FClear.No wind94%29.95 "Hg10 mi
11:00 pm59 °FClear.No wind88%29.95 "Hg10 mi
10:30 pm59 °FClear.1 mph88%29.95 "Hg10 mi
10:00 pm63 °FSunny.3 mph77%29.95 "Hg10 mi
9:30 pm64 °FSunny.3 mph73%29.95 "Hg10 mi
9:00 pm66 °FSunny.6 mph68%29.95 "Hg10 mi
Weather by CustomWeather, © 2020

See weather overview